Flag for U.S.A. Weather past 2 weeks in Sierra Vista, Arizona, U.S.A.

Now
43 °F

Fog.


Feels Like: 43 °F
Forecast: 38 / 51 °F
Wind: 1 mph from North

Location: Fort Huachuca

Current Time: Dec 18, 2014 at 4:32:10 AM

Latest Report: Dec 18, 2014 at 3:55 AM


Visibility: 0 mi

Pressure: 30.08 "Hg

Humidity: 100%

Dew point: 43 °F

Location of Sierra VistaLocation

Historic Weather in Sierra Vista — Graph

°F

Sierra Vista temperature yesterday

Maximum temperature yesterday: 54 °F (at 12:55 PM)
Minimum temperature yesterday: 43 °F (at 10:55 PM)
Average temperature yesterday: 48 °F

Past Weeks' High & Low Weather Summary

 TemperatureHumidityPressure
High72 °F (Dec 9, 1:55 PM)100% (Dec 4, 10:55 AM)30.26 "Hg (Dec 4, 10:55 AM)
Low33 °F (Dec 14, 6:56 AM)12% (Dec 11, 1:55 PM)29.85 "Hg (Dec 13, 2:56 PM)
Average52 °F60%30.06 "Hg
* Reported Dec 3 2:55 AM — Dec 18 2:55 AM, Sierra Vista, Weather by CustomWeather, © 2014

Note: Actual official high and low records may vary slightly from our data, if they occured in-between our weather recording intervals... More about our weather records

Advertising

Sierra Vista weather history for previous 24 hours

 ConditionsComfort  
Time TempWeatherWind HumidityBarometerVisibility
2:55 AM
Dec 18
43 °FOvercast.3 mph93%30.08 "Hg10 mi
1:55 AM43 °FLight rain. Fog.No wind100%30.08 "Hg6 mi
12:55 AM43 °FFog.3 mph100%30.09 "Hg5 mi
11:55 PM
Dec 17
43 °FFog.No wind100%30.11 "Hg0 mi
10:55 PM43 °FFog.3 mph100%30.13 "Hg1 mi
9:55 PM45 °FScattered showers. Passing clouds.No wind81%30.10 "Hg10 mi
8:55 PM48 °FPartly cloudy.7 mph94%30.09 "Hg10 mi
7:55 PM48 °FPartly cloudy.6 mph66%30.08 "Hg10 mi
6:55 PM46 °FPartly cloudy.No wind76%30.07 "Hg10 mi
5:55 PM48 °FScattered showers. Partly cloudy.18 mph66%30.05 "Hg10 mi
4:55 PM48 °FBroken clouds.20 mph66%30.03 "Hg10 mi
3:55 PM52 °FScattered showers. Broken clouds.16 mph54%30.01 "Hg10 mi
2:55 PM54 °FScattered showers. Scattered clouds.23 mph51%30.00 "Hg10 mi
1:55 PM54 °FSprinkles. Broken clouds.13 mph54%30.00 "Hg10 mi
12:55 PM54 °FScattered clouds.16 mph54%30.02 "Hg10 mi
11:55 AM50 °FSprinkles. Broken clouds.14 mph62%30.06 "Hg10 mi
10:55 AM48 °FScattered showers. Partly sunny.9 mph66%30.09 "Hg10 mi
9:55 AM48 °FScattered showers. Partly sunny.8 mph66%30.08 "Hg10 mi
8:55 AM46 °FScattered showers. Partly sunny.9 mph71%30.05 "Hg10 mi
7:55 AM45 °FPartly sunny.7 mph76%30.03 "Hg10 mi
6:55 AM45 °FPassing clouds.13 mph71%30.02 "Hg10 mi
5:55 AM45 °FPartly cloudy.17 mph71%29.99 "Hg10 mi
4:55 AM46 °FPassing clouds.7 mph62%29.96 "Hg10 mi
Weather by CustomWeather, © 2014

See weather overviewHow to use our weather pages